Regional Weather Roundup
Issued by NWS Charleston, WV

Home | Current Version | Previous Version | Text Only | Print | Product List | Glossary Off
Versions: 1 2 3 4 5 6 7 8 9 10 11 12 13 14 15 16 17 18 19 20 21 22 23 24 25 26 27 28 29 30 31 32 33 34 35 36 37 38 39 40 41 42 43 44 45 46 47 48 49 50

000
ASUS41 KRLX 232010
RWRRLX
West Virginia Regional Weather Roundup
National Weather Service Charleston WV
400 PM EDT WED JUL 23 2014

Note: "fair" indicates few or no clouds below 12,000 feet with no
significant weather and/or obstructions to visibility.

WVZ003-232100-
Northern Panhandle of West Virginia

CITY           SKY/WX    TMP DP  RH WIND       PRES   REMARKS
WHEELING       PTSUNNY   83  65  54 NW14G22   29.97F
$$

WVZ009-232100-
Northwest West Virginia

CITY           SKY/WX    TMP DP  RH WIND       PRES   REMARKS
PARKERSBURG    NOT AVBL
$$

WVZ006-232100-
Western West Virginia

CITY           SKY/WX    TMP DP  RH WIND       PRES   REMARKS
HUNTINGTON     SUNNY     90  66  45 NW6       29.95F
$$

WVZ015-232100-
West Central West Virginia

CITY           SKY/WX    TMP DP  RH WIND       PRES   REMARKS
CHARLESTON     PTSUNNY   87  70  56 SW8       29.96F
$$

WVZ031-232100-
North Central West Virginia

CITY           SKY/WX    TMP DP  RH WIND       PRES   REMARKS
CLARKSBURG     HVY RAIN  73  67  81 W8        29.97R
MORGANTOWN     MOSUNNY   85  68  56 VRB6      29.97S
$$

WVZ035-042-045-232100-
South Central West Virginia

CITY           SKY/WX    TMP DP  RH WIND       PRES   REMARKS
BECKLEY        MOSUNNY   82  66  58 W9        30.06F
BLUEFIELD      PTSUNNY   82  65  56 SW8       30.10F
LEWISBURG      MOSUNNY   86  65  48 SW9       30.04F
$$

WVZ047-232100-
Northern Mountains of West Virginia

CITY           SKY/WX    TMP DP  RH WIND       PRES   REMARKS
ELKINS         MOSUNNY   84  67  56 W13G18    30.01S
$$

WVZ052-232100-
Eastern Panhandle of West Virginia

CITY           SKY/WX    TMP DP  RH WIND       PRES   REMARKS
MARTINSBURG    MOSUNNY   93  68  43 S9        29.86F HX  97
PETERSBURG     MOSUNNY   93  54  27 NW14      29.90F
$$


USA.gov is the U.S. government's official web portal to all federal, state and local government web resources and services.